Starlink 30320

operational
NORAD ID: 57678 Int'l Des: 2023-124 Owner: SPXS Country: US Constellation: starlink
LEOCIRCULAR

Über Starlink 30320

Beschreibung wird geladen...

Live-Position

3D-Globus wird geladen...

Nächste Überflüge

Höhenverlauf

Altitude vs Time

uPlot chart will show altitude changes over time

Zweizeiliger Elementsatz

1 57678U 23124R 25353.91020696 -.00000397 00000-0 -12719-5 0 9992
2 57678 53.1597 204.6184 0001350 89.1830 270.9325 15.30186268131539
Epoch: 19. Dez. 2025 • Age: 9 hours

Aktueller Status

Höhe 477.2 km
Geschwindigkeit 7.63 km/s
Subsatellitenpunkt -5.58°S, 1.2°E
Startdatum 22. Aug. 2023
Alter 2.3 years
Typ internet

Technische Details

Klassifizierung Payload
Masse 730.00 kg
Trockenmasse 700.00 kg
Gesamtmasse 730.00 kg
Länge 0.30 m
Durchmesser 4.10 m
Spannweite 29.00 m
Form Box + pan
Hersteller SPXS
Bus-Typ Starlink V2M
Phasenstatus In Orbit
Besitzer/Staat SPXS/US

Große Konstellationen

Loading constellations...